Regional Weather Roundup
Issued by NWS

Home | Current Version | Previous Version | Graphics & Text | Print | Product List | Glossary On
Versions: 1 2 3 4 5 6 7 8 9 10 11 12 13 14 15 16 17 18 19 20 21 22 23 24 25 26 27 28 29 30 31 32 33 34 35 36 37 38 39 40 41 42 43 44 45 46 47 48 49 50
354
ASUS43 KLSX 290810
RWRMO

WEATHER SUMMARY FOR MISSOURI
NATIONAL WEATHER SERVICE SPRINGFIELD MO
300 AM CDT SUN MAY 29 2016

NOTE: "FAIR" INDICATES FEW OR NO CLOUDS BELOW 12,000 FEET WITH NO
       SIGNIFICANT WEATHER AND/OR OBSTRUCTIONS TO VISIBILITY.
       CURRENT SKY AND/OR WEATHER CONDITIONS ARE NOT AVAILABLE FOR
       CHILLICOTHE AND FARMINGTON.

MOZ001>031-035>038-043-044-053-054-290900-
...NORTHERN AND WESTERN MISSOURI...

CITY           SKY/WX    TMP DP  RH WIND       PRES   REMARKS
KANSAS CTY INT CLEAR     61  58  90 S6        30.02S
KANSAS C DTWN  CLEAR     66  59  78 SW5       30.01F
LEE`S SUMMIT   CLEAR     64  59  83 SW5       30.03S
ST JOSEPH      CLEAR     62  59  90 CALM      30.01R
CHILLICOTHE      N/A     64  60  87 CALM      30.01S
KIRKSVILLE     CLEAR     62  59  90 SW5       30.00S

$$
MOZ066>068-077>081-088>096-101>105-290900-
...SOUTHWEST MISSOURI...

CITY           SKY/WX    TMP DP  RH WIND       PRES   REMARKS
SPRINGFIELD    CLEAR     62  59  90 S6        30.07R
JOPLIN         CLEAR     64  62  93 S6        30.07R

$$
MOZ032>034-039>042-045>050-055>058-069>072-290900-
...CENTRAL MISSOURI...

CITY           SKY/WX    TMP DP  RH WIND       PRES   REMARKS
COLUMBIA       PTCLDY    64  62  93 SW6       30.03S
JEFFERSON CITY CLEAR     68  62  81 CALM      30.02S
ROLLA          CLEAR     66  62  87 W8        30.03S
SEDALIA        CLEAR     65  61  87 SW8       30.04S
WHITEMAN AFB   CLEAR     62  62  99 SW5       30.02S
WARRENSBURG    CLEAR     61  59  94 S6        30.03S

$$
MOZ051-052-059>065-290900-
...EAST CENTRAL MISSOURI...

CITY           SKY/WX    TMP DP  RH WIND       PRES   REMARKS
ST LOUIS INTL  PTCLDY    69  58  67 CALM      30.03R
SPIRIT OF STL  CLEAR     65  60  84 CALM      30.02R
ST CHARLES     CLEAR     66  62  87 SE3       30.01R

$$
MOZ072>076-082>087-097>100-106>115-290900-
...SOUTH CENTRAL AND SOUTHEAST MISSOURI...

CITY           SKY/WX    TMP DP  RH WIND       PRES   REMARKS
CAPE GIRARDEAU PTCLDY    68  67  96 S5        30.03R
FARMINGTON     CLOUDY    67  65  93 CALM      30.05R
POPLAR BLUFF   CLEAR     68  67  96 CALM      30.02F
WEST PLAINS    PTCLDY    66  63  90 SW3       30.07S

$$




USA.gov is the U.S. government's official web portal to all federal, state and local government web resources and services.